Location: Oberwangen
(47.4286°N, 8.9679°E)
Time: 15:29:05
(UTC+00:00)

Iridium 2 - Pass Details

Date: 20 June 2021
Orbit: 502 x 511 km, 85.5° (Epoch: 02 August)

Event Time Altitude Azimuth Distance (km) Brightness Sun altitude
Exits shadow 22:12:28 36° 194° (SSW) 812 4.2 -17.2°
Maximum altitude 22:13:54 78° 275° (W) 522 3.6 -17.3°
Drops below altitude 10° 22:17:40 10° 2° (N) 1,727 7.5 -17.5°
Sets 22:19:48 0° 4° (N) 2,616 8.6 -17.6°
